Location: Bijele Vode
(45.2833°N, 16.2000°E)
Time: 22:31:21
(UTC+00:00)

Cosmos 1125 Rocket - Pass Details

Date: 20 January 2021
Orbit: 757 x 780 km, 74.0° (Epoch: 08 March)

Event Time Altitude Azimuth Distance (km) Brightness Sun altitude
Exits shadow 04:12:38 - 352° (N) 3,097 6.5 -23.4°
Reaches altitude 10° 04:15:20 10° 10° (N) 2,334 6.0 -22.9°
Maximum altitude 04:18:48 17° 51° (NE) 1,877 6.0 -22.3°
Drops below altitude 10° 04:22:15 10° 92° (E) 2,333 7.2 -21.7°
Sets 04:25:28 0° 112° (ESE) 3,258 8.1 -21.2°
